owner,sensor,date,latitude,longitude,vertical_datum,direction_of_sea_water_velocity,sea_water_speed,upward_sea_water_velocity,qcFlag 
ADCP,ioos:station:wmo:42890:1,2009-07-01T00:14:00Z,27.6250,-90.4410,15.2,113.0,46.2,-9999.0,'11111222,11111222,99999999' 
ADCP,ioos:station:wmo:42890:1,2009-07-01T00:34:00Z,27.6250,-90.4410,15.2,125.0,41.7,-9999.0,'11111222,11111222,99999999' 
ADCP,ioos:station:wmo:42890:1,2009-07-01T00:54:00Z,27.6250,-90.4410,15.2,151.0,19.1,-9999.0,'11111222,11111222,99999999' 
ADCP,ioos:station:wmo:42890:1,2009-07-01T01:14:00Z,27.6250,-90.4410,15.2,197.0,29.5,-9999.0,'11111222,11111222,99999999' 
ADCP,ioos:station:wmo:42890:1,2009-07-01T01:34:00Z,27.6250,-90.4410,15.2,140.0,16.6,-9999.0,'11111222,11111222,99999999' 
ADCP,ioos:station:wmo:42890:1,2009-07-01T01:54:00Z,27.6250,-90.4410,15.2,201.0,24.8,-9999.0,'11111222,11111222,99999999' 
ADCP,ioos:station:wmo:42890:1,2009-07-01T02:14:00Z,27.6250,-90.4410,15.2,216.0,25.2,-9999.0,'11111222,11111222,99999999' 
ADCP,ioos:station:wmo:42890:1,2009-07-01T02:34:00Z,27.6250,-90.4410,15.2,220.0,18.0,-9999.0,'11111222,11111222,99999999' 
ADCP,ioos:station:wmo:42890:1,2009-07-01T02:54:00Z,27.6250,-90.4410,15.2,193.0,13.3,-9999.0,'11111222,11111222,99999999' 
ADCP,ioos:station:wmo:42890:1,2009-07-01T03:14:00Z,27.6250,-90.4410,15.2,162.0,15.9,-9999.0,'11111222,11111222,99999999' 
ADCP,ioos:station:wmo:42890:1,2009-07-01T03:34:00Z,27.6250,-90.4410,15.2,144.0,17.9,-9999.0,'11111222,11111222,99999999' 
ADCP,ioos:station:wmo:42890:1,2009-07-01T03:54:00Z,27.6250,-90.4410,15.2,120.0,23.6,-9999.0,'11111222,11111222,99999999' 
ADCP,ioos:station:wmo:42890:1,2009-07-01T04:14:00Z,27.6250,-90.4410,15.2,125.0,25.0,-9999.0,'11111222,11111222,99999999' 
ADCP,ioos:station:wmo:42890:1,2009-07-01T04:34:00Z,27.6250,-90.4410,15.2,169.0,13.6,-9999.0,'11111222,11111222,99999999' 
ADCP,ioos:station:wmo:42890:1,2009-07-01T04:54:00Z,27.6250,-90.4410,15.2,131.0,21.6,-9999.0,'11111222,11111222,99999999' 
ADCP,ioos:station:wmo:42890:1,2009-07-01T05:14:00Z,27.6250,-90.4410,15.2,136.0,18.0,-9999.0,'11111222,11111222,99999999' 
ADCP,ioos:station:wmo:42890:1,2009-07-01T05:34:00Z,27.6250,-90.4410,15.2,224.0,14.1,-9999.0,'11111222,11111222,99999999' 
ADCP,ioos:station:wmo:42890:1,2009-07-01T05:54:00Z,27.6250,-90.4410,15.2,207.0,13.6,-9999.0,'11111222,11111222,99999999' 
ADCP,ioos:station:wmo:42890:1,2009-07-01T06:14:00Z,27.6250,-90.4410,15.2,215.0,13.2,-9999.0,'11111222,11111222,99999999' 
ADCP,ioos:station:wmo:42890:1,2009-07-01T06:34:00Z,27.6250,-90.4410,15.2,185.0,13.7,-9999.0,'11111222,11111222,99999999' 
ADCP,ioos:station:wmo:42890:1,2009-07-01T06:54:00Z,27.6250,-90.4410,15.2,193.0,17.7,-9999.0,'11111222,11111222,99999999' 
ADCP,ioos:station:wmo:42890:1,2009-07-01T07:14:00Z,27.6250,-90.4410,15.2,192.0,16.2,-9999.0,'11111222,11111222,99999999' 
ADCP,ioos:station:wmo:42890:1,2009-07-01T07:34:00Z,27.6250,-90.4410,15.2,197.0,15.3,-9999.0,'11111222,11111222,99999999' 
ADCP,ioos:station:wmo:42890:1,2009-07-01T07:54:00Z,27.6250,-90.4410,15.2,192.0,18.2,-9999.0,'11111222,11111222,99999999' 
ADCP,ioos:station:wmo:42890:1,2009-07-01T08:14:00Z,27.6250,-90.4410,15.2,199.0,21.6,-9999.0,'11111222,11111222,99999999' 
ADCP,ioos:station:wmo:42890:1,2009-07-01T08:34:00Z,27.6250,-90.4410,15.2,214.0,18.4,-9999.0,'11111222,11111222,99999999' 
ADCP,ioos:station:wmo:42890:1,2009-07-01T08:54:00Z,27.6250,-90.4410,15.2,191.0,17.1,-9999.0,'11111222,11111222,99999999' 
ADCP,ioos:station:wmo:42890:1,2009-07-01T09:14:00Z,27.6250,-90.4410,15.2,182.0,15.8,-9999.0,'11111222,11111222,99999999' 
ADCP,ioos:station:wmo:42890:1,2009-07-01T09:34:00Z,27.6250,-90.4410,15.2,173.0,17.6,-9999.0,'11111222,11111222,99999999' 
ADCP,ioos:station:wmo:42890:1,2009-07-01T09:54:00Z,27.6250,-90.4410,15.2,166.0,24.6,-9999.0,'11111222,11111222,99999999' 
ADCP,ioos:station:wmo:42890:1,2009-07-01T10:14:00Z,27.6250,-90.4410,15.2,183.0,13.7,-9999.0,'11111222,11111222,99999999' 
ADCP,ioos:station:wmo:42890:1,2009-07-01T10:34:00Z,27.6250,-90.4410,15.2,183.0,17.4,-9999.0,'11111222,11111222,99999999' 
ADCP,ioos:station:wmo:42890:1,2009-07-01T10:54:00Z,27.6250,-90.4410,15.2,196.0,10.7,-9999.0,'11111222,11111222,99999999' 
ADCP,ioos:station:wmo:42890:1,2009-07-01T11:14:00Z,27.6250,-90.4410,15.2,204.0,15.2,-9999.0,'11111222,11111222,99999999' 
ADCP,ioos:station:wmo:42890:1,2009-07-01T11:34:00Z,27.6250,-90.4410,15.2,217.0,15.1,-9999.0,'11111222,11111222,99999999' 
ADCP,ioos:station:wmo:42890:1,2009-07-01T11:54:00Z,27.6250,-90.4410,15.2,186.0,16.2,-9999.0,'11111222,11111222,99999999' 
ADCP,ioos:station:wmo:42890:1,2009-07-01T12:14:00Z,27.6250,-90.4410,15.2,202.0,16.0,-9999.0,'11111222,11111222,99999999' 
ADCP,ioos:station:wmo:42890:1,2009-07-01T12:34:00Z,27.6250,-90.4410,15.2,222.0,18.5,-9999.0,'11111222,11111222,99999999' 
ADCP,ioos:station:wmo:42890:1,2009-07-01T12:54:00Z,27.6250,-90.4410,15.2,222.0,19.4,-9999.0,'11111222,11111222,99999999' 
ADCP,ioos:station:wmo:42890:1,2009-07-01T13:14:00Z,27.6250,-90.4410,15.2,255.0,15.6,-9999.0,'11111222,11111222,99999999' 
ADCP,ioos:station:wmo:42890:1,2009-07-01T13:34:00Z,27.6250,-90.4410,15.2,309.0,15.6,-9999.0,'11111222,11111222,99999999' 
ADCP,ioos:station:wmo:42890:1,2009-07-01T13:54:00Z,27.6250,-90.4410,15.2,284.0,28.9,-9999.0,'11111222,11111222,99999999' 
ADCP,ioos:station:wmo:42890:1,2009-07-01T14:14:00Z,27.6250,-90.4410,15.2,283.0,18.0,-9999.0,'11111222,11111222,99999999' 
ADCP,ioos:station:wmo:42890:1,2009-07-01T14:34:00Z,27.6250,-90.4410,15.2,343.0,26.9,-9999.0,'11111222,11111222,99999999' 
ADCP,ioos:station:wmo:42890:1,2009-07-01T14:54:00Z,27.6250,-90.4410,15.2,293.0,16.0,-9999.0,'11111222,11111222,99999999' 
ADCP,ioos:station:wmo:42890:1,2009-07-01T15:14:00Z,27.6250,-90.4410,15.2,287.0,30.1,-9999.0,'11111222,11111222,99999999' 
ADCP,ioos:station:wmo:42890:1,2009-07-01T15:34:00Z,27.6250,-90.4410,15.2,287.0,27.1,-9999.0,'11111222,11111222,99999999' 
ADCP,ioos:station:wmo:42890:1,2009-07-01T15:54:00Z,27.6250,-90.4410,15.2,15.0,38.8,-9999.0,'11111222,11111222,99999999' 
ADCP,ioos:station:wmo:42890:1,2009-07-01T16:14:00Z,27.6250,-90.4410,15.2,302.0,18.8,-9999.0,'11111222,11111222,99999999' 
ADCP,ioos:station:wmo:42890:1,2009-07-01T16:34:00Z,27.6250,-90.4410,15.2,298.0,21.2,-9999.0,'11111222,11111222,99999999' 
ADCP,ioos:station:wmo:42890:1,2009-07-01T16:54:00Z,27.6250,-90.4410,15.2,302.0,23.8,-9999.0,'11111222,11111222,99999999' 
ADCP,ioos:station:wmo:42890:1,2009-07-01T17:14:00Z,27.6250,-90.4410,15.2,313.0,20.4,-9999.0,'11111222,11111222,99999999' 
ADCP,ioos:station:wmo:42890:1,2009-07-01T17:34:00Z,27.6250,-90.4410,15.2,317.0,26.2,-9999.0,'11111222,11111222,99999999' 
ADCP,ioos:station:wmo:42890:1,2009-07-01T17:54:00Z,27.6250,-90.4410,15.2,316.0,16.8,-9999.0,'11111222,11111222,99999999' 
ADCP,ioos:station:wmo:42890:1,2009-07-01T18:14:00Z,27.6250,-90.4410,15.2,329.0,15.9,-9999.0,'11111222,11111222,99999999' 
ADCP,ioos:station:wmo:42890:1,2009-07-01T18:34:00Z,27.6250,-90.4410,15.2,316.0,15.3,-9999.0,'11111222,11111222,99999999' 
ADCP,ioos:station:wmo:42890:1,2009-07-01T18:54:00Z,27.6250,-90.4410,15.2,321.0,14.2,-9999.0,'11111222,11111222,99999999' 
ADCP,ioos:station:wmo:42890:1,2009-07-01T19:14:00Z,27.6250,-90.4410,15.2,324.0,14.1,-9999.0,'11111222,11111222,99999999' 
ADCP,ioos:station:wmo:42890:1,2009-07-01T19:34:00Z,27.6250,-90.4410,15.2,323.0,12.9,-9999.0,'11111222,11111222,99999999' 
ADCP,ioos:station:wmo:42890:1,2009-07-01T19:54:00Z,27.6250,-90.4410,15.2,316.0,12.8,-9999.0,'11111222,11111222,99999999' 
ADCP,ioos:station:wmo:42890:1,2009-07-01T20:14:00Z,27.6250,-90.4410,15.2,321.0,10.7,-9999.0,'11111222,11111222,99999999' 
ADCP,ioos:station:wmo:42890:1,2009-07-01T20:34:00Z,27.6250,-90.4410,15.2,300.0,15.7,-9999.0,'11111222,11111222,99999999' 
ADCP,ioos:station:wmo:42890:1,2009-07-01T20:54:00Z,27.6250,-90.4410,15.2,324.0,8.9,-9999.0,'11133222,11111222,99999999' 
ADCP,ioos:station:wmo:42890:1,2009-07-01T21:14:00Z,27.6250,-90.4410,15.2,327.0,6.7,-9999.0,'11133222,11111222,99999999' 
ADCP,ioos:station:wmo:42890:1,2009-07-01T21:34:00Z,27.6250,-90.4410,15.2,336.0,6.4,-9999.0,'11133222,11111222,99999999' 
ADCP,ioos:station:wmo:42890:1,2009-07-01T21:54:00Z,27.6250,-90.4410,15.2,352.0,7.2,-9999.0,'11133222,11111222,99999999' 
ADCP,ioos:station:wmo:42890:1,2009-07-01T22:14:00Z,27.6250,-90.4410,15.2,5.0,6.4,-9999.0,'11133222,11111222,99999999' 
ADCP,ioos:station:wmo:42890:1,2009-07-01T22:34:00Z,27.6250,-90.4410,15.2,46.0,6.0,-9999.0,'11133222,11111222,99999999' 
ADCP,ioos:station:wmo:42890:1,2009-07-01T22:54:00Z,27.6250,-90.4410,15.2,73.0,8.8,-9999.0,'11133222,11111222,99999999' 
ADCP,ioos:station:wmo:42890:1,2009-07-01T23:14:00Z,27.6250,-90.4410,15.2,100.0,11.5,-9999.0,'11111222,11111222,99999999' 
ADCP,ioos:station:wmo:42890:1,2009-07-01T23:34:00Z,27.6250,-90.4410,15.2,266.0,25.4,-9999.0,'11111222,11111222,99999999' 
ADCP,ioos:station:wmo:42890:1,2009-07-01T23:54:00Z,27.6250,-90.4410,15.2,250.0,17.7,-9999.0,'11111222,11111222,99999999' 
ADCP,ioos:station:wmo:42890:1,2009-07-02T00:14:00Z,27.6250,-90.4410,15.2,241.0,2.5,-9999.0,'11133222,11111222,99999999' 
ADCP,ioos:station:wmo:42890:1,2009-07-02T00:34:00Z,27.6250,-90.4410,15.2,296.0,2.8,-9999.0,'11133222,11111222,99999999' 
ADCP,ioos:station:wmo:42890:1,2009-07-02T00:54:00Z,27.6250,-90.4410,15.2,90.0,3.1,-9999.0,'11133222,11111222,99999999' 
ADCP,ioos:station:wmo:42890:1,2009-07-02T01:14:00Z,27.6250,-90.4410,15.2,96.0,4.6,-9999.0,'11133222,11111222,99999999' 
ADCP,ioos:station:wmo:42890:1,2009-07-02T01:34:00Z,27.6250,-90.4410,15.2,153.0,11.1,-9999.0,'11111222,11111222,99999999' 
ADCP,ioos:station:wmo:42890:1,2009-07-02T01:54:00Z,27.6250,-90.4410,15.2,185.0,7.6,-9999.0,'11133222,11111222,99999999' 
ADCP,ioos:station:wmo:42890:1,2009-07-02T02:14:00Z,27.6250,-90.4410,15.2,223.0,6.9,-9999.0,'11133222,11111222,99999999' 
ADCP,ioos:station:wmo:42890:1,2009-07-02T02:34:00Z,27.6250,-90.4410,15.2,220.0,10.2,-9999.0,'11111222,11111222,99999999' 
ADCP,ioos:station:wmo:42890:1,2009-07-02T02:54:00Z,27.6250,-90.4410,15.2,162.0,12.0,-9999.0,'11111222,11111222,99999999' 
ADCP,ioos:station:wmo:42890:1,2009-07-02T03:14:00Z,27.6250,-90.4410,15.2,210.0,8.0,-9999.0,'11133222,11111222,99999999' 
ADCP,ioos:station:wmo:42890:1,2009-07-02T03:34:00Z,27.6250,-90.4410,15.2,239.0,8.7,-9999.0,'11133222,11111222,99999999' 
ADCP,ioos:station:wmo:42890:1,2009-07-02T03:54:00Z,27.6250,-90.4410,15.2,236.0,11.7,-9999.0,'11111222,11111222,99999999' 
ADCP,ioos:station:wmo:42890:1,2009-07-02T04:14:00Z,27.6250,-90.4410,15.2,227.0,5.2,-9999.0,'11133222,11111222,99999999' 
ADCP,ioos:station:wmo:42890:1,2009-07-02T04:34:00Z,27.6250,-90.4410,15.2,152.0,8.2,-9999.0,'11133222,11111222,99999999' 
ADCP,ioos:station:wmo:42890:1,2009-07-02T04:54:00Z,27.6250,-90.4410,15.2,144.0,7.9,-9999.0,'11133222,11111222,99999999' 
ADCP,ioos:station:wmo:42890:1,2009-07-02T05:14:00Z,27.6250,-90.4410,15.2,130.0,10.2,-9999.0,'11111222,11111222,99999999' 
ADCP,ioos:station:wmo:42890:1,2009-07-02T05:34:00Z,27.6250,-90.4410,15.2,210.0,18.7,-9999.0,'11111222,11111222,99999999' 
ADCP,ioos:station:wmo:42890:1,2009-07-02T05:54:00Z,27.6250,-90.4410,15.2,246.0,20.7,-9999.0,'11111222,11111222,99999999' 
ADCP,ioos:station:wmo:42890:1,2009-07-02T06:14:00Z,27.6250,-90.4410,15.2,167.0,11.5,-9999.0,'11111222,11111222,99999999' 
ADCP,ioos:station:wmo:42890:1,2009-07-02T06:34:00Z,27.6250,-90.4410,15.2,179.0,15.1,-9999.0,'11111222,11111222,99999999' 
ADCP,ioos:station:wmo:42890:1,2009-07-02T06:54:00Z,27.6250,-90.4410,15.2,201.0,17.6,-9999.0,'11111222,11111222,99999999' 
ADCP,ioos:station:wmo:42890:1,2009-07-02T07:14:00Z,27.6250,-90.4410,15.2,197.0,17.9,-9999.0,'11111222,11111222,99999999' 
ADCP,ioos:station:wmo:42890:1,2009-07-02T07:34:00Z,27.6250,-90.4410,15.2,200.0,21.0,-9999.0,'11111222,11111222,99999999' 
ADCP,ioos:station:wmo:42890:1,2009-07-02T07:54:00Z,27.6250,-90.4410,15.2,242.0,25.6,-9999.0,'11111222,11111222,99999999' 
ADCP,ioos:station:wmo:42890:1,2009-07-02T08:14:00Z,27.6250,-90.4410,15.2,145.0,38.3,-9999.0,'11111222,11111222,99999999' 
ADCP,ioos:station:wmo:42890:1,2009-07-02T08:34:00Z,27.6250,-90.4410,15.2,218.0,25.5,-9999.0,'11111222,11111222,99999999' 
ADCP,ioos:station:wmo:42890:1,2009-07-02T08:54:00Z,27.6250,-90.4410,15.2,175.0,24.6,-9999.0,'11111222,11111222,99999999' 
ADCP,ioos:station:wmo:42890:1,2009-07-02T09:14:00Z,27.6250,-90.4410,15.2,164.0,30.8,-9999.0,'11111222,11111222,99999999' 
ADCP,ioos:station:wmo:42890:1,2009-07-02T09:34:00Z,27.6250,-90.4410,15.2,170.0,34.4,-9999.0,'11111222,11111222,99999999' 
ADCP,ioos:station:wmo:42890:1,2009-07-02T09:54:00Z,27.6250,-90.4410,15.2,177.0,28.3,-9999.0,'11111222,11111222,99999999' 
ADCP,ioos:station:wmo:42890:1,2009-07-02T10:14:00Z,27.6250,-90.4410,15.2,199.0,21.9,-9999.0,'11111222,11111222,99999999' 
ADCP,ioos:station:wmo:42890:1,2009-07-02T10:34:00Z,27.6250,-90.4410,15.2,196.0,17.4,-9999.0,'11111222,11111222,99999999' 
ADCP,ioos:station:wmo:42890:1,2009-07-02T10:54:00Z,27.6250,-90.4410,15.2,176.0,18.0,-9999.0,'11111222,11111222,99999999' 
ADCP,ioos:station:wmo:42890:1,2009-07-02T11:14:00Z,27.6250,-90.4410,15.2,177.0,26.3,-9999.0,'11111222,11111222,99999999' 
ADCP,ioos:station:wmo:42890:1,2009-07-02T11:34:00Z,27.6250,-90.4410,15.2,188.0,18.9,-9999.0,'11111222,11111222,99999999' 
ADCP,ioos:station:wmo:42890:1,2009-07-02T11:54:00Z,27.6250,-90.4410,15.2,202.0,16.6,-9999.0,'11111222,11111222,99999999' 
ADCP,ioos:station:wmo:42890:1,2009-07-02T12:14:00Z,27.6250,-90.4410,15.2,170.0,25.1,-9999.0,'11111222,11111222,99999999' 
ADCP,ioos:station:wmo:42890:1,2009-07-02T12:34:00Z,27.6250,-90.4410,15.2,183.0,21.6,-9999.0,'11111222,11111222,99999999' 
ADCP,ioos:station:wmo:42890:1,2009-07-02T12:54:00Z,27.6250,-90.4410,15.2,183.0,13.7,-9999.0,'11111222,11111222,99999999' 
ADCP,ioos:station:wmo:42890:1,2009-07-02T13:14:00Z,27.6250,-90.4410,15.2,281.0,13.9,-9999.0,'11111222,11111222,99999999' 
ADCP,ioos:station:wmo:42890:1,2009-07-02T13:34:00Z,27.6250,-90.4410,15.2,251.0,13.5,-9999.0,'11111222,11111222,99999999' 
ADCP,ioos:station:wmo:42890:1,2009-07-02T13:54:00Z,27.6250,-90.4410,15.2,210.0,21.3,-9999.0,'11111222,11111222,99999999' 
ADCP,ioos:station:wmo:42890:1,2009-07-02T14:14:00Z,27.6250,-90.4410,15.2,232.0,14.7,-9999.0,'11111222,11111222,99999999' 
ADCP,ioos:station:wmo:42890:1,2009-07-02T14:34:00Z,27.6250,-90.4410,15.2,240.0,16.5,-9999.0,'11111222,11111222,99999999' 
ADCP,ioos:station:wmo:42890:1,2009-07-02T14:54:00Z,27.6250,-90.4410,15.2,236.0,16.2,-9999.0,'11111222,11111222,99999999' 
ADCP,ioos:station:wmo:42890:1,2009-07-02T15:14:00Z,27.6250,-90.4410,15.2,233.0,13.8,-9999.0,'11111222,11111222,99999999' 
ADCP,ioos:station:wmo:42890:1,2009-07-02T15:34:00Z,27.6250,-90.4410,15.2,168.0,18.7,-9999.0,'11111222,11111222,99999999' 
ADCP,ioos:station:wmo:42890:1,2009-07-02T15:54:00Z,27.6250,-90.4410,15.2,249.0,14.1,-9999.0,'11111222,11111222,99999999' 
ADCP,ioos:station:wmo:42890:1,2009-07-02T16:14:00Z,27.6250,-90.4410,15.2,263.0,18.7,-9999.0,'11111222,11111222,99999999' 
ADCP,ioos:station:wmo:42890:1,2009-07-02T16:34:00Z,27.6250,-90.4410,15.2,359.0,23.6,-9999.0,'11111222,11111222,99999999' 
ADCP,ioos:station:wmo:42890:1,2009-07-02T17:04:00Z,27.6250,-90.4410,15.2,299.0,18.0,-9999.0,'11111222,11111222,99999999' 
ADCP,ioos:station:wmo:42890:1,2009-07-02T17:24:00Z,27.6250,-90.4410,15.2,292.0,15.2,-9999.0,'11111222,11111222,99999999' 
ADCP,ioos:station:wmo:42890:1,2009-07-02T17:44:00Z,27.6250,-90.4410,15.2,283.0,18.9,-9999.0,'11111222,11111222,99999999' 
ADCP,ioos:station:wmo:42890:1,2009-07-02T18:04:00Z,27.6250,-90.4410,15.2,291.0,18.1,-9999.0,'11111222,11111222,99999999' 
ADCP,ioos:station:wmo:42890:1,2009-07-02T18:24:00Z,27.6250,-90.4410,15.2,307.0,16.8,-9999.0,'11111222,11111222,99999999' 
ADCP,ioos:station:wmo:42890:1,2009-07-02T18:44:00Z,27.6250,-90.4410,15.2,303.0,19.0,-9999.0,'11111222,11111222,99999999' 
ADCP,ioos:station:wmo:42890:1,2009-07-02T19:04:00Z,27.6250,-90.4410,15.2,310.0,16.2,-9999.0,'11111222,11111222,99999999' 
ADCP,ioos:station:wmo:42890:1,2009-07-02T19:24:00Z,27.6250,-90.4410,15.2,316.0,15.4,-9999.0,'11111222,11111222,99999999' 
ADCP,ioos:station:wmo:42890:1,2009-07-02T19:44:00Z,27.6250,-90.4410,15.2,318.0,14.7,-9999.0,'11111222,11111222,99999999' 
ADCP,ioos:station:wmo:42890:1,2009-07-02T20:04:00Z,27.6250,-90.4410,15.2,315.0,14.8,-9999.0,'11111222,11111222,99999999' 
ADCP,ioos:station:wmo:42890:1,2009-07-02T20:24:00Z,27.6250,-90.4410,15.2,314.0,13.2,-9999.0,'11111222,11111222,99999999' 
ADCP,ioos:station:wmo:42890:1,2009-07-02T20:44:00Z,27.6250,-90.4410,15.2,306.0,17.0,-9999.0,'11111222,11111222,99999999' 
ADCP,ioos:station:wmo:42890:1,2009-07-02T21:04:00Z,27.6250,-90.4410,15.2,306.0,16.5,-9999.0,'11111222,11111222,99999999' 
ADCP,ioos:station:wmo:42890:1,2009-07-02T21:24:00Z,27.6250,-90.4410,15.2,317.0,14.2,-9999.0,'11111222,11111222,99999999' 
ADCP,ioos:station:wmo:42890:1,2009-07-02T21:44:00Z,27.6250,-90.4410,15.2,332.0,12.3,-9999.0,'11111222,11111222,99999999' 
ADCP,ioos:station:wmo:42890:1,2009-07-02T22:04:00Z,27.6250,-90.4410,15.2,336.0,11.0,-9999.0,'11111222,11111222,99999999' 
ADCP,ioos:station:wmo:42890:1,2009-07-02T22:24:00Z,27.6250,-90.4410,15.2,329.0,9.7,-9999.0,'11133222,11111222,99999999' 
ADCP,ioos:station:wmo:42890:1,2009-07-02T22:44:00Z,27.6250,-90.4410,15.2,23.0,10.8,-9999.0,'11111222,11111222,99999999' 
ADCP,ioos:station:wmo:42890:1,2009-07-02T23:04:00Z,27.6250,-90.4410,15.2,56.0,15.0,-9999.0,'11111222,11111222,99999999' 
ADCP,ioos:station:wmo:42890:1,2009-07-02T23:24:00Z,27.6250,-90.4410,15.2,64.0,12.4,-9999.0,'11111222,11111222,99999999' 
ADCP,ioos:station:wmo:42890:1,2009-07-02T23:44:00Z,27.6250,-90.4410,15.2,88.0,14.4,-9999.0,'11111222,11111222,99999999' 
ADCP,ioos:station:wmo:42890:1,2009-07-03T00:04:00Z,27.6250,-90.4410,15.2,80.0,4.1,-9999.0,'11133222,11111222,99999999' 
ADCP,ioos:station:wmo:42890:1,2009-07-03T00:24:00Z,27.6250,-90.4410,15.2,274.0,3.0,-9999.0,'11133222,11111222,99999999' 
ADCP,ioos:station:wmo:42890:1,2009-07-03T00:44:00Z,27.6250,-90.4410,15.2,267.0,4.0,-9999.0,'11133222,11111222,99999999' 
ADCP,ioos:station:wmo:42890:1,2009-07-03T01:04:00Z,27.6250,-90.4410,15.2,255.0,6.1,-9999.0,'11133222,11111222,99999999' 
ADCP,ioos:station:wmo:42890:1,2009-07-03T01:24:00Z,27.6250,-90.4410,15.2,170.0,8.7,-9999.0,'11133222,11111222,99999999' 
ADCP,ioos:station:wmo:42890:1,2009-07-03T01:44:00Z,27.6250,-90.4410,15.2,218.0,9.3,-9999.0,'11133222,11111222,99999999' 
ADCP,ioos:station:wmo:42890:1,2009-07-03T02:04:00Z,27.6250,-90.4410,15.2,173.0,3.5,-9999.0,'11133222,11111222,99999999' 
ADCP,ioos:station:wmo:42890:1,2009-07-03T02:24:00Z,27.6250,-90.4410,15.2,168.0,2.4,-9999.0,'11133222,11111222,99999999' 
ADCP,ioos:station:wmo:42890:1,2009-07-03T02:44:00Z,27.6250,-90.4410,15.2,204.0,1.2,-9999.0,'11133222,11111222,99999999' 
ADCP,ioos:station:wmo:42890:1,2009-07-03T03:04:00Z,27.6250,-90.4410,15.2,212.0,2.5,-9999.0,'11133222,11111222,99999999' 
ADCP,ioos:station:wmo:42890:1,2009-07-03T03:24:00Z,27.6250,-90.4410,15.2,209.0,6.0,-9999.0,'11133222,11111222,99999999' 
ADCP,ioos:station:wmo:42890:1,2009-07-03T03:44:00Z,27.6250,-90.4410,15.2,195.0,7.3,-9999.0,'11133222,11111222,99999999' 
ADCP,ioos:station:wmo:42890:1,2009-07-03T04:04:00Z,27.6250,-90.4410,15.2,213.0,10.0,-9999.0,'11111222,11111222,99999999' 
ADCP,ioos:station:wmo:42890:1,2009-07-03T04:24:00Z,27.6250,-90.4410,15.2,220.0,10.8,-9999.0,'11111222,11111222,99999999' 
ADCP,ioos:station:wmo:42890:1,2009-07-03T04:44:00Z,27.6250,-90.4410,15.2,213.0,8.5,-9999.0,'11133222,11111222,99999999' 
ADCP,ioos:station:wmo:42890:1,2009-07-03T05:04:00Z,27.6250,-90.4410,15.2,188.0,8.6,-9999.0,'11133222,11111222,99999999' 
ADCP,ioos:station:wmo:42890:1,2009-07-03T05:24:00Z,27.6250,-90.4410,15.2,185.0,10.9,-9999.0,'11111222,11111222,99999999' 
ADCP,ioos:station:wmo:42890:1,2009-07-03T05:44:00Z,27.6250,-90.4410,15.2,168.0,10.9,-9999.0,'11111222,11111222,99999999' 
ADCP,ioos:station:wmo:42890:1,2009-07-03T06:04:00Z,27.6250,-90.4410,15.2,169.0,10.3,-9999.0,'11111222,11111222,99999999' 
ADCP,ioos:station:wmo:42890:1,2009-07-03T06:24:00Z,27.6250,-90.4410,15.2,163.0,10.6,-9999.0,'11111222,11111222,99999999' 
ADCP,ioos:station:wmo:42890:1,2009-07-03T06:44:00Z,27.6250,-90.4410,15.2,153.0,8.9,-9999.0,'11133222,11111222,99999999' 
ADCP,ioos:station:wmo:42890:1,2009-07-03T07:04:00Z,27.6250,-90.4410,15.2,157.0,9.9,-9999.0,'11133222,11111222,99999999' 
ADCP,ioos:station:wmo:42890:1,2009-07-03T07:24:00Z,27.6250,-90.4410,15.2,185.0,8.5,-9999.0,'11133222,11111222,99999999' 
ADCP,ioos:station:wmo:42890:1,2009-07-03T07:44:00Z,27.6250,-90.4410,15.2,186.0,10.8,-9999.0,'11111222,11111222,99999999' 
ADCP,ioos:station:wmo:42890:1,2009-07-03T08:04:00Z,27.6250,-90.4410,15.2,201.0,13.7,-9999.0,'11111222,11111222,99999999' 
ADCP,ioos:station:wmo:42890:1,2009-07-03T08:24:00Z,27.6250,-90.4410,15.2,198.0,12.4,-9999.0,'11111222,11111222,99999999' 
ADCP,ioos:station:wmo:42890:1,2009-07-03T08:44:00Z,27.6250,-90.4410,15.2,225.0,15.5,-9999.0,'11111222,11111222,99999999' 
ADCP,ioos:station:wmo:42890:1,2009-07-03T09:04:00Z,27.6250,-90.4410,15.2,249.0,22.1,-9999.0,'11111222,11111222,99999999' 
ADCP,ioos:station:wmo:42890:1,2009-07-03T09:24:00Z,27.6250,-90.4410,15.2,249.0,19.6,-9999.0,'11111222,11111222,99999999' 
ADCP,ioos:station:wmo:42890:1,2009-07-03T09:44:00Z,27.6250,-90.4410,15.2,240.0,18.6,-9999.0,'11111222,11111222,99999999' 
ADCP,ioos:station:wmo:42890:1,2009-07-03T10:04:00Z,27.6250,-90.4410,15.2,248.0,19.9,-9999.0,'11111222,11111222,99999999' 
ADCP,ioos:station:wmo:42890:1,2009-07-03T10:24:00Z,27.6250,-90.4410,15.2,230.0,17.2,-9999.0,'11111222,11111222,99999999' 
ADCP,ioos:station:wmo:42890:1,2009-07-03T10:44:00Z,27.6250,-90.4410,15.2,228.0,17.1,-9999.0,'11111222,11111222,99999999' 
ADCP,ioos:station:wmo:42890:1,2009-07-03T11:04:00Z,27.6250,-90.4410,15.2,199.0,17.5,-9999.0,'11111222,11111222,99999999' 
ADCP,ioos:station:wmo:42890:1,2009-07-03T11:24:00Z,27.6250,-90.4410,15.2,189.0,17.0,-9999.0,'11111222,11111222,99999999' 
ADCP,ioos:station:wmo:42890:1,2009-07-03T11:44:00Z,27.6250,-90.4410,15.2,192.0,18.6,-9999.0,'11111222,11111222,99999999' 
ADCP,ioos:station:wmo:42890:1,2009-07-03T12:04:00Z,27.6250,-90.4410,15.2,207.0,15.6,-9999.0,'11111222,11111222,99999999' 
ADCP,ioos:station:wmo:42890:1,2009-07-03T12:24:00Z,27.6250,-90.4410,15.2,205.0,28.4,-9999.0,'11111222,11111222,99999999' 
ADCP,ioos:station:wmo:42890:1,2009-07-03T12:44:00Z,27.6250,-90.4410,15.2,181.0,16.4,-9999.0,'11111222,11111222,99999999' 
ADCP,ioos:station:wmo:42890:1,2009-07-03T13:04:00Z,27.6250,-90.4410,15.2,197.0,11.7,-9999.0,'11111222,11111222,99999999' 
ADCP,ioos:station:wmo:42890:1,2009-07-03T13:24:00Z,27.6250,-90.4410,15.2,238.0,15.6,-9999.0,'11111222,11111222,99999999' 
ADCP,ioos:station:wmo:42890:1,2009-07-03T13:44:00Z,27.6250,-90.4410,15.2,227.0,15.6,-9999.0,'11111222,11111222,99999999' 
ADCP,ioos:station:wmo:42890:1,2009-07-03T14:04:00Z,27.6250,-90.4410,15.2,222.0,14.2,-9999.0,'11111222,11111222,99999999' 
ADCP,ioos:station:wmo:42890:1,2009-07-03T14:24:00Z,27.6250,-90.4410,15.2,243.0,14.8,-9999.0,'11111222,11111222,99999999' 
ADCP,ioos:station:wmo:42890:1,2009-07-03T14:44:00Z,27.6250,-90.4410,15.2,243.0,12.6,-9999.0,'11111222,11111222,99999999' 
ADCP,ioos:station:wmo:42890:1,2009-07-03T15:04:00Z,27.6250,-90.4410,15.2,235.0,12.8,-9999.0,'11111222,11111222,99999999' 
ADCP,ioos:station:wmo:42890:1,2009-07-03T15:24:00Z,27.6250,-90.4410,15.2,250.0,16.4,-9999.0,'11111222,11111222,99999999' 
ADCP,ioos:station:wmo:42890:1,2009-07-03T15:44:00Z,27.6250,-90.4410,15.2,248.0,12.5,-9999.0,'11111222,11111222,99999999' 
ADCP,ioos:station:wmo:42890:1,2009-07-03T16:04:00Z,27.6250,-90.4410,15.2,230.0,16.5,-9999.0,'11111222,11111222,99999999' 
ADCP,ioos:station:wmo:42890:1,2009-07-03T16:24:00Z,27.6250,-90.4410,15.2,239.0,13.5,-9999.0,'11111222,11111222,99999999' 
ADCP,ioos:station:wmo:42890:1,2009-07-03T16:44:00Z,27.6250,-90.4410,15.2,303.0,12.0,-9999.0,'11111222,11111222,99999999' 
ADCP,ioos:station:wmo:42890:1,2009-07-03T17:04:00Z,27.6250,-90.4410,15.2,308.0,15.8,-9999.0,'11111222,11111222,99999999' 
ADCP,ioos:station:wmo:42890:1,2009-07-03T17:24:00Z,27.6250,-90.4410,15.2,291.0,25.7,-9999.0,'11111222,11111222,99999999' 